Regional Weather Roundup
Issued by NWS

Home | Current Version | Previous Version | Graphics & Text | Print | Product List | Glossary On
Versions: 1 2 3 4 5 6 7 8 9 10 11 12 13 14 15 16 17 18 19 20 21 22 23 24 25 26 27 28 29 30 31 32 33 34 35 36 37 38 39 40 41 42 43 44 45 46 47 48 49 50
767
ASUS44 KLIX 281607
RWRLA
LOUISIANA WEATHER ROUNDUP
NATIONAL WEATHER SERVICE NEW ORLEANS LA
1100 AM CDT SAT MAR 28 2015

NOTE: "FAIR" INDICATES FEW OR NO CLOUDS BELOW 12,000 FEET WITH NO
      SIGNIFICANT WEATHER AND/OR OBSTRUCTIONS TO VISIBILITY.
      SKY/WX - SKY CONDITION AND SIGNIFICANT WEATHER.
      TMP - AIR TEMPERATURE.    DP   - DEWPOINT TEMPERATURE.
      RH  - RELATIVE HUMIDITY.  PRES - PRESSURE.
      HX  - HEAT INDEX.         WCI  - WIND CHILL INDEX.

*  THESE STATIONS ARE NOT NWS OR FAA STATIONS AND ARE NOT UNDER
   NWS QUALITY CONTROL.

LAZ040-048-061>063-065-066-069-281700-
SOUTHEAST LOUISIANA

CITY           SKY/WX    TMP DP  RH WIND       PRES   REMARKS
N.O. AUDUBON   NOT AVBL
N.O. INTL ARPT MOSUNNY   61  38  42 E8        30.26R
N.O. LAKEFRONT SUNNY     62  38  40 E8        30.27R
SLIDELL        SUNNY     58  37  45 E7        30.27R
BATON ROUGE    SUNNY     60  36  40 E8        30.25R
BOOTHVILLE     SUNNY     60  45  57 E9        30.27S
BELLE CHASSE   MOSUNNY   59  40  49 VRB7      30.27R
BOGALUSA*        N/A     56  34  43 CALM      30.28S
GALLIANO*      SUNNY     64  46  52 MISG      30.26F
NEW ROADS*     FAIR      58  37  45 SE8       30.25S
GONZALES*      FAIR      61  41  48 SE6       30.25R
HAMMOND*       SUNNY     59  34  38 CALM      30.28S
HOUMA*         SUNNY     63  46  55 E7        30.25R
PORT FOURCHON* SUNNY     63  48  59 E10G16    30.29S

$$

LAZ041-044-053-054-281700-
SOUTHWEST LOUISIANA

CITY           SKY/WX    TMP DP  RH WIND       PRES   REMARKS
LAKE CHARLES   SUNNY     66  49  54 VRB7      30.22R
LAFAYETTE      SUNNY     63  45  51 VRB5      30.23F
PATTERSON      SUNNY     61  45  55 E10       30.25F
SALT POINT       N/A     63  46  54 VRB7      30.22S
NEW IBERIA     SUNNY     64  45  49 SE7       30.23F
CHENAULT AIRPK SUNNY     64  50  59 SE12      30.22R

$$

LAZ027-028-281700-
CENTRAL LOUISIANA

CITY           SKY/WX    TMP DP  RH WIND       PRES   REMARKS
FORT POLK      SUNNY     61  44  52 SE7       30.20R
ALEXANDRIA INT SUNNY     59  42  53 SE12      30.21S
ALEXANDRIA     SUNNY     58  40  51 VRB5      30.22S

$$

LAZ001-002-281700-
NORTHWEST LOUISIANA

CITY           SKY/WX    TMP DP  RH WIND       PRES   REMARKS
SHREVEPORT     PTSUNNY   61  42  49 SE13      30.17F
BARKSDALE AFB  MOSUNNY   59  42  53 SE12G17   30.18F
DTN SHREVEPORT MOSUNNY   57  42  57 SE10      30.18F

$$

LAZ014-016-281700-
NORTHEAST LOUISIANA

CITY           SKY/WX    TMP DP  RH WIND       PRES   REMARKS
MONROE         PTSUNNY   52  38  58 E6        30.26R
TALLULAH       PTSUNNY   51  37  58 E8        30.27R

$$




USA.gov is the U.S. government's official web portal to all federal, state and local government web resources and services.